Location: Aubonne
(46.4500°N, 6.3833°E)
Time: 19:07:53
(UTC+00:00)

Daily predictions for brighter satellites

Satellite Brightness Start Highest point End
(mag) Time Altitude Azimuth Time Altitude Azimuth Time Altitude Azimuth
CZ-4 R/B 4.4 17:45:04 10° SSE 17:49:13 77° ENE 17:53:23 10° N
COSMO-SKYMED 1 2.6 17:45:47 10° NNE 17:50:10 84° ESE 17:54:30 10° SSW
GP-B 4.4 17:48:03 10° ESE 17:51:11 19° ENE 17:54:20 10° NNE
SL-16 R/B 2.3 17:49:18 10° S 17:54:51 61° ESE 18:00:27 10° NNE
Cosmos 2263 Rocket 2.8 17:49:29 10° NNW 17:55:01 64° WSW 18:00:29 10° SSE
Cosmos 1437 3.4 17:52:22 10° NNW 17:55:12 53° W 17:58:01 10° S
Cosmos 968 Rocket 3.5 17:50:40 10° NNW 17:55:57 71° ENE 18:01:12 10° SSE
ARGOS 3.5 17:51:47 10° SE 17:56:55 46° ENE 18:02:05 10° N
Cosmos 1486 Rocket 4.0 17:54:25 10° NNW 17:59:42 67° ENE 18:04:59 10° SSE
USA 234 4.2 17:54:32 10° ENE 17:59:59 27° SE 18:05:23 10° S
Cosmos 1515 3.9 17:56:28 10° N 18:00:11 47° ENE 18:03:53 10° SSE
Okean 1 3.6 17:56:21 10° N 18:00:17 47° ENE 18:04:11 10° SSE
Cosmos 1633 Rocket 3.0 17:58:02 10° S 18:02:24 67° E 18:06:49 10° NNE
Cosmos 2184 Rocket 4.0 17:56:22 10° S 18:02:30 76° E 18:08:43 10° NNE
SeaSat 1 3.2 17:58:40 10° NE 18:03:04 31° ESE 18:07:25 10° S
Okean 1-7 4.3 18:00:16 10° NNE 18:03:38 21° ENE 18:06:56 10° ESE
Cosmos 1707 Rocket 3.8 17:59:25 10° NNW 18:03:49 75° W 18:08:09 10° S
CZ-4 R/B 1.2 18:04:19 10° SSE 18:08:10 82° ENE 18:12:06 10° NNW
H-2A R/B 2.2 18:02:46 10° SSE 18:08:12 79° ENE 18:13:41 10° N
CZ-2C R/B 3.2 18:03:14 10° NNE 18:08:15 36° E 18:13:09 10° SSE
USA 305 4.2 18:06:42 10° WNW 18:10:35 32° N 18:14:27 10° NE
SAR-Lupe-4 4.0 18:07:28 10° NNE 18:10:52 39° E 18:14:15 10° S
IRS-1C Rocket 4.3 18:06:45 10° SSE 18:12:01 81° WSW 18:17:20 10° NNW
Gbstr 26 Del rocket 3.8 18:09:04 10° W 18:13:18 50° N 18:18:27 10° ENE
Cosmos 2237 4.5 18:08:46 10° S 18:14:12 47° ESE 18:19:41 10° NE
Meteor 1-20 Rocket 4.2 18:09:16 10° S 18:14:44 87° WNW 18:20:16 10° N
SL-4 R/B 2.6 18:12:41 10° WNW 18:16:01 35° N 18:18:38 14° ENE
USA 307 4.3 18:18:04 10° WNW 18:21:56 31° N 18:25:41 10° NE
ATLAS CENTAUR R/B 1.5 18:20:28 10° S 18:23:50 38° ESE 18:26:57 12° NE
FALCON 9 DEB 3.4 18:20:37 10° NW 18:24:00 54° NNE 18:26:13 19° E
USA 186 3.3 18:25:07 13° NE 18:25:07 13° NE 18:25:45 10° NNE
USA 306 4.3 18:21:33 10° WNW 18:25:21 31° N 18:28:56 11° NE
Cosmos 1354 Rocket 4.1 18:21:13 10° NNW 18:26:24 57° ENE 18:31:32 10° SE
Cosmos 44 Rocket 3.7 18:22:32 10° NW 18:27:47 75° WSW 18:32:56 10° SSE
Okean-O 2.8 18:23:34 10° S 18:28:00 77° WSW 18:32:28 10° NNW
ERS-2 2.0 18:24:32 10° NNE 18:28:12 72° ESE 18:31:50 10° S
CSL-04 Rocket 3.7 18:23:51 10° SSE 18:29:21 68° ENE 18:34:51 10° N
Cosmos 1844 Rocket 2.7 18:24:35 10° NNW 18:30:06 58° ENE 18:35:34 10° SE
Cosmos 2084 Rocket 3.5 18:25:51 10° NW 18:30:13 89° SW 18:34:43 10° SE
SAR-Lupe-1 3.9 18:26:44 10° NNE 18:30:20 72° ESE 18:33:54 10° S
CSL-04 Debris 4.1 18:25:17 10° SSE 18:30:42 75° ENE 18:36:11 10° NNW
USA 308 4.3 18:28:46 10° WNW 18:32:35 30° N 18:35:51 13° NE
Cosmos 1666 3.5 18:30:29 10° SSE 18:33:40 28° E 18:36:54 10° NNE
HJ-1C 3.4 18:32:38 10° S 18:35:57 82° WSW 18:39:16 10° NNW
Cosmos 1503 Rocket 3.9 18:31:26 10° NNW 18:36:40 79° ENE 18:41:49 10° SSE
Cosmos 2341 Rocket 4.1 18:31:32 10° SSE 18:37:35 51° E 18:43:38 10° NNE
Meteor 1-5 Rocket 4.3 18:32:50 10° SSE 18:37:54 46° E 18:43:10 10° NNE
PSLV R/B 4.2 18:35:12 10° N 18:39:18 70° WNW 18:43:19 10° SSW
Cosmos 1470 Rocket 3.6 18:37:09 10° S 18:41:37 84° W 18:46:06 10° N
Cosmos 1844 3.8 18:36:11 10° NNW 18:41:55 60° ENE 18:46:58 13° SE
CZ-4B R/B 4.1 18:40:50 10° NNW 18:43:09 20° WNW 18:45:29 10° WSW
Cosmos 2360 Rocket 2.1 18:38:38 10° SSW 18:44:13 67° ESE 18:49:51 10° NNE
Ariane Rocket 3.7 18:42:04 20° ESE 18:44:52 33° ENE 18:49:25 10° N
Cosmos 2278 Rocket 3.6 18:42:55 10° N 18:47:03 20° NE 18:48:36 18° ENE
Cosmos 1500 3.2 18:48:36 10° SSW 18:52:20 80° W 18:56:05 10° N
Meteor 2-4 Rocket 3.8 18:48:09 10° N 18:54:01 87° ENE 18:59:58 10° S
Cosmos 1703 Rocket 3.4 18:49:51 10° N 18:54:16 69° E 18:58:35 10° SSE
Cosmos 2333 Rocket 2.7 18:49:18 10° S 18:54:26 36° ESE 18:59:37 10° NE
Cosmos 2218 Rocket 4.2 18:50:08 10° SSE 18:56:11 47° E 19:02:15 10° NNE
SL-08 RB Rocket 3.8 18:52:06 10° S 18:56:35 75° WSW 19:01:11 10° NNW
Cosmos 1689 Rocket 3.6 18:53:58 10° N 18:56:40 36° WNW 18:59:20 10° SW
ERBS 4.4 18:57:44 10° WNW 19:00:22 21° NNW 19:02:19 14° NNE
Cosmos 1933 Rocket 3.7 18:58:11 10° SSW 19:02:32 76° W 19:06:56 10° N
Aureole 2 Rocket 3.9 19:02:52 10° NW 19:05:01 24° WSW 19:06:52 12° SSW
Resurs 01 Rocket 3.1 19:12:41 22° NE 19:12:41 22° NE 19:15:08 10° N
Cosmos 2242 Rocket 3.9 19:07:48 10° NNW 19:12:17 69° W 19:16:43 10° S
Cosmos 864 Rocket 4.5 19:06:57 10° S 19:12:56 57° E 19:19:00 10° NNE
Cosmos 2322 Rocket 3.3 19:09:00 10° SW 19:14:22 45° NW 19:19:46 10° NNE
Lacrosse 4 Rocket 2.7 19:12:10 10° S 19:14:29 27° SSE 19:14:29 27° SSE
Abrixas rocket 3.3 19:14:32 10° WNW 19:16:07 31° NW 19:16:07 31° NW
Cosmos 1959 Rocket 4.3 19:12:20 10° S 19:18:20 65° E 19:24:24 10° NNE
SME Rocket 4.1 19:10:23 10° NNE 19:18:32 65° E 19:23:48 10° S
Cosmos 192 4.2 19:16:47 10° S 19:21:37 65° ESE 19:26:30 10° NNE
SJ-6B 2.8 19:22:30 42° SSE 19:23:50 89° SW 19:27:56 10° NNW
COSMOS 2428 2.9 19:19:03 10° S 19:24:26 46° ESE 19:24:51 45° E
ASTEX 1 3.2 19:22:46 10° N 19:27:39 69° E 19:30:11 28° S
GP-B 4.2 19:23:54 10° SSW 19:28:09 45° W 19:32:26 10° NNW
MOS 1 4.2 19:25:33 28° SSE 19:28:40 78° ENE 19:34:22 10° NNW
Meteor 1-23 Rocket 4.3 19:24:21 10° N 19:29:49 53° ENE 19:30:27 50° E
Cosmos 2219 Rocket 2.1 19:25:53 10° S 19:31:21 62° ESE 19:36:54 10° NNE
Meteor 1-11 Rocket 3.6 19:25:52 10° S 19:31:34 75° E 19:37:11 10° NNE
MetOp-A 4.4 19:27:31 10° S 19:32:50 67° WSW 19:38:12 10° NNW
Cosmos 1241 Rocket 4.5 19:27:36 10° NW 19:34:16 89° SW 19:36:54 39° SSE
OBJECT-B 2.2 19:36:26 34° NNW 19:36:26 34° NNW 19:38:25 10° NNW
Resurs 1-3 3.6 19:38:47 64° NNE 19:38:47 64° NNE 19:42:42 10° N
SL-16 R/B 4.2 19:34:38 10° WSW 19:39:23 27° NW 19:44:09 10° N
SeaSat 1 3.6 19:36:00 10° NNE 19:40:39 42° NW 19:45:17 10° WSW
SJ 16-02 2.4 19:36:45 10° N 19:39:35 33° NNE 19:39:35 33° NNE
Okean 1-7 4.3 19:37:16 10° NNW 19:41:22 40° W 19:45:24 10° SSW
USA 234 3.1 19:39:54 29° NE 19:43:32 87° SE 19:50:06 10° SW
Cosmos 1066 Rocket 4.1 19:38:00 10° N 19:43:45 86° E 19:45:41 44° SSE
CZ-2C R/B 4.2 19:43:33 10° N 19:48:31 36° WNW 19:53:22 10° SW
IRS-1A Rocket 4.4 19:46:43 29° S 19:49:41 71° WSW 19:55:15 10° NNW
USA 305 4.2 19:47:30 10° NW 19:50:56 32° N 19:50:56 32° N
Cosmos 2322 3.8 19:45:40 10° SSW 19:51:23 77° WNW 19:57:09 10° NNE
BREEZE-M DEB (TANK) 2.8 19:48:36 10° WNW 19:51:09 64° NNW 19:51:09 64° NNW
SL-4 R/B 3.5 19:52:22 10° WNW 19:54:13 29° WNW 19:54:13 29° WNW
Cosmos 1869 Rocket 4.4 19:52:41 10° SSW 19:56:53 48° WNW 20:01:10 10° N
Gbstr 26 Del rocket 3.9 19:56:09 10° WNW 20:00:56 52° NNE 20:00:58 52° NNE
USA 307 4.4 19:58:50 10° NW 20:01:49 30° NNW 20:01:49 30° NNW
ATLAS CENTAUR R/B 3.2 19:59:49 10° W 20:02:48 23° NW 20:03:11 23° NNW
USA 306 4.5 20:02:12 10° NW 20:05:03 30° NNW 20:05:03 30° NNW
SPOT 3 Rocket 4.0 20:18:37 59° NW 20:18:37 59° NW 20:22:54 10° NNW
NOSS 3-3 (A) 4.4 20:10:30 10° NW 20:17:59 74° NE 20:18:42 69° E
NOSS 3-3 (C) 4.4 20:10:36 10° NW 20:18:04 73° NE 20:18:47 69° E
Ariane Rocket 4.4 20:22:15 29° SW 20:23:47 35° W 20:28:27 10° NNW
Cosmos 2360 Rocket 4.3 20:24:10 10° W 20:28:44 24° NW 20:33:20 10° N
Cosmos 2278 Rocket 2.8 20:26:12 10° NNW 20:30:28 53° NNW 20:30:28 53° NNW
Cosmos 2333 Rocket 3.4 20:33:19 10° WSW 20:38:39 40° NW 20:44:03 10° NNE
Resurs 01 Rocket 4.0 20:50:14 21° NW 20:50:14 21° NW 20:51:58 10° NNW
Cosmos 1943 Rocket 4.2 20:46:15 10° N 20:48:24 20° N 20:48:24 20° N
COSMOS 2428 4.4 21:03:46 10° WSW 21:14:00 10° NNE 21:14:00 10° NNE
Cosmos 2219 Rocket 4.1 21:11:07 10° WSW 21:15:45 26° NW 21:20:25 10° N
SJ 16-02 4.4 21:16:03 10° NW 21:16:35 12° NW 21:16:35 12° NW
USA 234 4.2 21:27:15 42° NW 21:27:15 42° NW 21:32:21 10° W
